EHI
4 5 6 6 6 6 6 6 5 2 0 0 0 0 0 0 0 0 1 1 1 0 0 0 0 0 0 0 0 0 0 0 0 0 0 0 0 0
6 6 7 7 7 6 6 5 4 3 2 1 0 0 0 0 0 0 0 1 0 0 0 0 0 0 0 0 0 0 0 0 0 0 0 0 0 0
6 7 7 7 8 7 5 4 3 4 4 3 1 0 0 0 1 1 1 1 1 0 0 0 0 0 0 0 0 0 0 0 0 0 0 0 0 0
7 7 7 8 8 7 5 3 3 4 5 4 2 1 1 1 1 2 2 2 1 0 0 0 0 0 0 0 0 0 0 0 0 0 0 0 0 0
8 7 7 7 7 7 5 4 3 3 4 4 2 2 2 1 2 3 3 2 1 1 0 0 0 0 0 0 0 0 0 0 0 0 0 0 0 0
10 8 7 7 7 7 6 4 3 3 3 3 3 3 3 3 4 4 3 2 2 2 1 0 0 0 0 0 0 0 0 0 0 0 0 0 0 0
11 10 8 7 7 7 6 4 4 5 5 4 4 3 4 4 5 4 2 2 2 2 1 0 0 0 0 0 0 0 0 0 0 0 0 0 0 0
11 10 8 7 6 6 5 4 4 5 6 5 4 3 3 3 3 2 2 2 2 2 2 1 1 0 0 0 0 0 0 0 0 0 0 0 0 0
11 10 10 9 7 6 5 4 3 3 4 4 3 2 1 1 1 0 1 2 3 3 3 3 2 1 0 0 0 0 0 0 0 0 0 0 0 0
9 9 11 11 8 6 5 3 2 1 2 2 2 1 0 0 0 0 0 1 2 3 3 4 3 1 0 0 0 0 0 0 0 0 0 0 0 0
5 6 9 9 5 3 3 3 2 1 0 1 1 1 0 0 0 0 1 2 3 3 3 3 2 1 0 0 0 0 0 0 0 0 0 0 0 0
3 4 5 4 1 1 2 3 2 1 1 1 1 0 0 0 0 0 1 2 3 3 3 3 2 1 0 0 0 0 0 0 0 0 0 0 0 0
4 5 4 2 0 0 1 2 1 1 1 2 2 1 0 0 0 1 1 2 3 3 3 2 1 1 1 0 0 0 0 0 0 0 0 0 0 0
6 6 5 2 0 0 0 0 0 0 1 1 2 2 1 1 1 2 2 3 3 3 3 3 2 2 2 1 0 0 0 0 0 0 0 0 0 0
4 4 3 1 0 0 0 0 0 0 0 1 2 2 2 2 2 2 3 3 3 3 3 3 3 3 3 2 1 0 0 0 0 0 0 0 0 0
1 1 1 0 0 0 0 0 0 0 0 0 1 1 1 1 1 1 2 3 3 3 3 3 3 3 3 3 2 1 0 0 0 0 0 0 0 1
0 0 0 0 0 0 0 0 0 0 0 0 0 0 0 0 0 0 1 3 3 3 3 3 3 3 3 3 2 1 0 1 1 0 0 1 1 2
1 2 1 0 0 0 0 0 0 0 0 0 0 0 0 0 0 0 1 3 3 3 3 3 3 3 3 3 2 2 2 2 2 1 1 2 3 3
3 3 2 1 0 0 0 0 0 0 0 0 0 0 0 0 0 0 2 3 3 3 3 3 3 3 3 3 2 2 3 3 3 3 3 3 3 3
3 3 3 2 1 0 0 0 0 0 0 0 0 0 0 0 0 0 1 2 3 3 3 3 3 3 3 3 2 1 1 2 3 3 3 3 3 3
2 2 2 2 1 0 0 0 0 0 0 1 0 0 0 0 1 0 0 1 1 2 2 3 3 3 3 3 3 1 0 1 1 2 2 3 3 3
1 1 1 1 1 0 0 0 0 0 0 0 0 0 0 0 1 1 1 0 0 1 1 1 2 3 3 3 3 2 1 0 0 1 1 1 2 2
0 0 0 0 0 0 0 0 0 0 0 0 0 0 0 0 1 2 2 1 0 0 0 0 1 3 3 3 3 2 1 0 0 0 0 0 1 1
Wind_Speed
1 1 1 1 1 1 2 3 3 2 2 2 1 1 1 0 1 1 1 2 4 4 4 4 5 5 4 4 4 4 3 3 4 4 5 5 5 5
1 1 1 1 1 1 1 1 2 3 2 2 2 1 1 0 0 0 1 2 3 4 4 5 5 5 4 5 5 4 4 4 4 4 4 5 5 4
2 1 2 1 1 1 1 1 1 2 2 2 1 1 1 1 1 0 0 1 1 3 4 5 5 4 4 4 4 4 4 4 4 4 4 4 4 4
2 2 2 1 1 1 1 1 1 2 2 2 1 1 1 1 0 0 0 1 1 3 4 5 5 5 4 4 4 4 4 3 4 4 4 4 4 4
3 3 3 2 2 2 2 1 1 1 1 2 1 1 1 0 1 1 1 1 1 2 3 4 4 4 4 4 4 4 4 4 4 4 4 3 3 3
3 3 3 3 3 3 2 2 1 1 1 1 1 1 1 0 1 0 1 1 1 0 1 2 3 3 3 3 4 4 5 4 4 4 4 4 3 3
3 3 3 3 3 3 3 3 2 2 2 2 1 1 1 0 1 1 1 0 1 0 1 0 1 1 1 2 3 4 5 5 5 4 4 4 4 4
3 3 3 2 3 4 4 4 4 4 3 3 2 2 3 2 1 1 1 1 1 1 1 0 1 1 1 1 3 4 5 5 5 6 5 5 4 4
3 3 3 2 3 2 2 3 3 4 6 5 4 4 4 4 3 1 1 1 2 2 1 1 1 1 2 2 4 4 5 5 6 6 6 5 5 4
3 4 4 3 3 3 2 1 2 3 4 4 5 5 4 4 4 4 3 1 0 0 2 1 1 2 2 1 3 5 5 5 6 6 6 6 5 5
3 3 4 4 4 4 3 2 2 2 3 5 6 5 5 5 4 3 2 2 1 2 1 2 2 1 1 2 3 5 5 5 5 6 6 6 6 5
2 3 4 4 5 5 4 3 3 3 2 1 2 2 3 4 6 5 5 3 2 2 3 3 2 1 1 2 1 1 3 4 6 6 6 6 6 4
3 3 3 5 5 6 5 5 6 4 2 2 2 1 1 2 3 3 4 5 4 3 3 3 2 2 2 1 1 1 2 2 2 3 5 7 7 7
4 3 3 5 5 6 5 6 6 4 2 2 2 2 2 3 3 3 4 4 4 5 4 4 3 3 3 2 2 2 2 2 2 2 2 4 5 7
3 4 4 5 4 4 5 5 3 2 2 3 3 4 3 3 2 1 1 2 2 2 3 4 4 3 3 3 2 2 2 2 3 3 3 4 4 4
3 3 3 3 2 2 2 2 2 3 3 4 3 3 2 2 2 2 2 1 1 2 2 3 4 4 3 3 3 3 3 3 3 4 3 3 3 4
2 1 0 0 1 1 1 2 1 2 2 2 2 2 2 2 2 2 2 2 2 2 2 1 1 2 3 4 3 3 3 3 3 3 3 3 4 5
4 2 3 3 3 3 3 2 2 3 3 3 3 3 3 3 3 2 2 2 3 3 2 1 0 1 1 2 4 4 3 3 3 3 3 3 4 4
3 3 3 4 4 3 3 3 3 4 3 3 3 3 3 3 3 2 3 3 3 3 3 2 2 2 2 4 4 4 4 3 2 2 3 4 5 5
3 3 4 4 4 4 4 4 3 3 3 3 3 3 3 3 3 3 3 3 3 3 2 2 3 4 5 5 4 3 5 4 3 4 3 2 2 2
4 4 4 4 4 3 3 3 3 3 3 3 3 3 3 3 3 3 3 4 3 3 3 4 5 5 2 1 1 3 3 5 5 4 3 2 1 1
4 4 4 4 3 3 3 3 3 3 3 3 3 3 3 3 3 4 3 3 4 4 4 4 2 1 2 3 4 4 3 2 3 3 4 5 4 5
4 4 4 4 3 3 3 3 4 3 3 4 3 3 3 3 3 3 4 4 3 3 3 2 1 1 2 3 4 3 3 3 1 1 2 4 5 6
Wind_Direction
238 222 227 245 213 196 183 173 171 209 265 265 285 302 293 293 279 244 220 192 188 194 195 192 193 190 185 179 178 181 185 187 195 200 197 193 193 200
227 228 247 256 234 211 203 195 179 181 223 243 237 264 291 313 39 291 211 144 146 163 175 173 170 172 180 181 178 180 185 185 187 186 186 187 187 191
244 225 248 245 242 245 211 196 191 167 199 264 263 278 277 272 320 27 107 144 131 151 161 157 157 162 169 175 178 176 177 178 178 180 179 179 181 189
232 235 254 245 247 241 201 204 210 191 169 227 277 295 278 273 294 210 175 143 156 140 157 157 157 157 159 163 172 171 172 174 178 175 174 178 183 185
223 222 240 230 240 240 207 202 207 186 160 178 242 273 282 292 15 352 22 48 140 142 158 160 157 159 161 162 167 168 172 176 178 173 174 183 189 195
232 228 235 224 228 222 208 202 178 153 147 159 219 256 254 274 97 32 10 11 24 73 120 136 142 153 164 174 176 171 170 170 173 180 186 187 183 180
243 236 235 229 217 201 197 200 182 172 166 174 201 217 235 198 220 205 178 51 7 26 76 95 124 142 188 193 184 179 180 180 179 180 187 195 191 182
240 249 245 234 222 200 195 186 179 182 187 186 204 213 230 219 210 194 166 132 274 278 126 179 135 203 240 219 203 195 195 193 189 189 193 199 200 195
227 233 242 239 210 200 204 198 208 211 198 193 200 223 219 210 185 191 195 188 216 214 143 243 235 244 250 229 212 212 208 204 201 199 197 198 197 192
228 221 220 231 212 187 185 212 238 237 221 204 205 221 219 202 189 190 190 181 300 243 150 199 242 246 256 243 225 220 219 217 213 210 204 199 193 188
242 233 221 219 216 189 177 206 244 261 247 219 216 220 218 203 182 148 150 145 225 256 194 179 223 243 268 262 245 226 222 221 223 220 212 206 201 193
255 251 232 219 213 198 192 198 228 247 231 237 236 231 219 211 195 184 182 180 190 236 215 181 194 164 272 274 246 231 227 232 229 226 216 207 197 187
238 246 245 227 221 216 208 209 221 219 206 196 209 233 226 221 216 208 195 188 194 224 207 173 183 179 189 255 285 238 214 229 227 233 223 216 204 191
233 237 239 231 229 229 227 231 225 208 188 184 199 229 230 229 228 220 214 210 208 212 202 175 177 183 176 197 251 257 229 220 212 221 217 209 211 210
239 241 244 238 228 231 237 234 215 189 185 198 213 226 225 221 212 218 234 229 242 231 201 189 181 180 176 190 210 213 225 234 212 213 210 206 206 197
245 256 252 243 233 243 254 233 199 196 197 211 223 227 214 200 206 203 211 217 233 281 263 208 193 177 184 200 196 215 207 215 218 215 210 216 212 205
192 219 251 269 260 264 252 238 216 205 218 225 218 219 218 218 225 209 194 186 203 231 259 288 241 202 198 185 200 222 218 226 223 205 196 219 227 215
164 204 222 226 226 224 222 226 218 218 221 221 218 217 216 218 224 212 194 195 212 224 226 227 170 45 358 289 214 209 217 226 226 206 193 207 237 230
182 215 223 227 230 228 219 217 224 223 213 210 216 217 213 213 208 208 203 207 218 223 226 209 186 176 214 258 267 219 208 221 213 216 210 207 224 231
213 218 226 229 227 226 224 220 223 222 214 217 219 215 207 202 205 212 209 210 219 226 235 224 211 207 214 229 239 249 218 205 204 217 221 217 240 258
226 229 229 227 223 220 221 222 221 216 209 210 218 218 214 205 214 218 214 216 212 215 229 238 238 227 219 155 259 271 258 230 213 204 195 193 217 223
225 229 233 230 225 217 213 211 215 220 213 212 214 213 211 206 212 216 211 210 216 222 235 248 247 185 181 210 237 250 262 278 262 235 212 189 184 200
221 222 227 230 225 213 206 206 207 216 215 208 206 210 210 211 211 212 214 213 216 225 232 248 250 217 219 225 236 243 247 247 231 232 267 272 239 233